Flag Weather past 2 weeks in Riverside, California, U.S.A.

Now
68 °F

Scattered clouds.


Feels Like: 68 °F
Forecast: 51 / 74 °F
Wind: 17 mph from North

Location: Riverside Municipal Airport

Current Time: Nov 23, 2014 at 9:24:03 AM

Latest Report: Nov 23, 2014 at 8:53 AM


Visibility: 10 mi

Pressure: 30.11 "Hg

Humidity: 24%

Dew point: 30 °F

Location of RiversideLocation

Historic Weather in Riverside — Graph

°F

Riverside temperature yesterday

Maximum temperature yesterday: 72 °F (at 1:53 PM)
Minimum temperature yesterday: 48 °F (at 5:53 AM)
Average temperature yesterday: 59 °F

Past Weeks' High & Low Weather Summary

 TemperatureHumidityPressure
High90 °F (Nov 8, 1:53 PM)97% (Nov 9, 11:53 PM)30.17 "Hg (Nov 9, 11:53 PM)
Low47 °F (Nov 20, 4:53 AM)4% (Nov 16, 11:53 AM)29.76 "Hg (Nov 9, 3:53 PM)
Average63 °F54%29.99 "Hg
* Reported Nov 8 7:53 AM — Nov 23 7:53 AM, Riverside, Weather by CustomWeather, © 2014

Note: Actual official high and low records may vary slightly from our data, if they occured in-between our weather recording intervals... More about our weather records

Advertising

Riverside weather history for previous 24 hours

 ConditionsComfort  
Time TempWeatherWind HumidityBarometerVisibility
7:53 AM
Nov 23
66 °FSunny.12 mph32%30.09 "Hg10 mi
6:53 AM63 °FPartly sunny.13 mph40%30.05 "Hg10 mi
5:53 AM50 °FClear.No wind89%30.06 "Hg9 mi
4:53 AM52 °FClear.6 mph86%30.03 "Hg10 mi
3:53 AM52 °FClear.3 mph86%30.02 "Hg10 mi
2:53 AM53 °FPassing clouds.No wind86%30.02 "Hg10 mi
1:53 AM52 °FClear.No wind89%30.03 "Hg10 mi
12:53 AM54 °FPassing clouds.No wind90%30.01 "Hg9 mi
11:53 PM
Nov 22
54 °FClear.No wind86%30.01 "Hg10 mi
10:53 PM57 °FClear.3 mph83%30.02 "Hg10 mi
9:53 PM55 °FClear.3 mph80%30.01 "Hg10 mi
8:53 PM59 °FClear.No wind78%30.01 "Hg10 mi
7:53 PM60 °FClear.No wind72%30.00 "Hg10 mi
6:53 PM62 °FClear.No wind65%30.00 "Hg10 mi
5:53 PM64 °FClear.6 mph58%29.99 "Hg10 mi
4:53 PM67 °FClear.7 mph47%29.97 "Hg10 mi
3:53 PM70 °FScattered clouds.7 mph42%29.97 "Hg10 mi
2:53 PM72 °FSunny.6 mph37%29.98 "Hg10 mi
1:53 PM72 °FSunny.3 mph37%30.00 "Hg10 mi
12:53 PM71 °FPartly sunny.5 mph34%30.01 "Hg10 mi
11:53 AM68 °FSunny.No wind42%30.03 "Hg10 mi
10:53 AM65 °FSunny.No wind49%30.07 "Hg10 mi
9:53 AM61 °FSunny.No wind58%30.09 "Hg10 mi
Weather by CustomWeather, © 2014

See weather overviewHow to use our weather pages